Flag for South Africa Weather past 2 weeks in Rustenburg, South Africa

Now
64 °F

Mild.


Feels Like: 64 °F
Forecast: 65 / 84 °F
Wind: 7 mph from South

Location: Lanseria Civ / Mil

Current Time: Dec 22, 2014 at 2:49:15 AM

Latest Report: Dec 22, 2014 at 2:00 AM


Visibility: N/A

Pressure: 30.09 "Hg

Humidity: 100%

Dew point: 64 °F

Location of RustenburgLocation

Historic Weather in Rustenburg — Graph

°F

Rustenburg temperature yesterday

Maximum temperature yesterday: 88 °F (at 1:00 PM)
Minimum temperature yesterday: 59 °F (at 3:00 AM)
Average temperature yesterday: 74 °F

Past Weeks' High & Low Weather Summary

 TemperatureHumidityPressure
High88 °F (Dec 21, 1:00 PM)100% (Dec 7, 10:00 PM)30.24 "Hg (Dec 7, 10:00 PM)
Low57 °F (Dec 7, 5:00 AM)19% (Dec 21, 6:00 PM)30.01 "Hg (Dec 15, 3:00 PM)
Average69 °F75%30.12 "Hg
* Reported Dec 7 2:00 AM — Dec 22 2:00 AM, Rustenburg, Weather by CustomWeather, © 2014

Note: Actual official high and low records may vary slightly from our data, if they occured in-between our weather recording intervals... More about our weather records

Advertising

Rustenburg weather history for previous 24 hours

 ConditionsComfort  
Time TempWeatherWind HumidityBarometerVisibility
2:00 AM
Dec 22
64 °FMild.7 mph100%30.09 "HgN/A
1:00 AM64 °FMild.3 mph100%30.12 "HgN/A
12:00 AM64 °FMild.14 mph94%30.15 "HgN/A
11:00 PM
Dec 21
72 °FMild.10 mph57%30.12 "HgN/A
10:00 PM73 °FClear.2 mph53%30.09 "Hg10 mi
9:00 PM75 °FClear.5 mph44%30.09 "Hg10 mi
8:00 PM77 °FClear.5 mph42%30.04 "Hg10 mi
7:00 PM79 °FClear.9 mph37%30.04 "Hg10 mi
6:00 PM88 °FPassing clouds.5 mph19%30.01 "HgN/A
5:00 PM88 °FPassing clouds.10 mph21%30.01 "HgN/A
4:00 PM88 °FPassing clouds.15 mph21%30.01 "HgN/A
3:00 PM88 °FPassing clouds.13 mph22%30.04 "HgN/A
2:00 PM88 °FPassing clouds.14 mph21%30.07 "HgN/A
1:00 PM88 °FPassing clouds.12 mph27%30.09 "HgN/A
12:00 PM86 °FPassing clouds.13 mph33%30.09 "HgN/A
11:00 AM84 °FPassing clouds.10 mph31%30.12 "HgN/A
10:00 AM79 °FSunny.3 mph48%30.12 "Hg10 mi
9:00 AM75 °FSunny.No wind54%30.15 "Hg10 mi
8:00 AM72 °FSunny.No wind61%30.15 "Hg10 mi
7:00 AM64 °FSunny.No wind88%30.15 "Hg10 mi
6:00 AM59 °FSunny.No wind100%30.12 "Hg10 mi
5:00 AM59 °FSunny.7 mph94%30.12 "Hg10 mi
4:00 AM59 °FCool.8 mph100%30.09 "HgN/A
3:00 AM59 °FCool.2 mph100%30.12 "HgN/A
2:00 AM63 °FMild.5 mph88%30.09 "HgN/A
Weather by CustomWeather, © 2014

See weather overviewHow to use our weather pages